DW0275 Weather Reports


Display with metric or nautical units.
time (UTC)temp
F
wind
direction
speed
MPH
gust
MPH
rain 1hr
in
rain 24hr
in
rain mn
in
humidity
%
barometer
mb
20260508094858 71 200 0.0 0.0 0.00 0.00 0.00 84 1014.6
20260508094337 71 200 0.0 0.0 0.00 0.00 0.00 84 1014.5
20260508093829 71 200 0.0 0.0 0.00 0.00 0.00 84 1014.5
20260508093325 71 200 0.0 0.0 0.00 0.00 0.00 84 1014.6
20260508092846 71 200 0.0 0.0 0.00 0.00 0.00 84 1014.6
20260508092340 71 200 0.0 0.0 0.00 0.00 0.00 84 1014.6
20260508091825 71 200 0.0 0.0 0.00 0.00 0.00 84 1014.5
20260508091335 71 200 0.0 0.0 0.00 0.00 0.00 85 1014.6
20260508090828 71 200 0.0 0.0 0.00 0.00 0.00 85 1014.6
20260508090343 71 200 0.0 0.0 0.00 0.00 0.00 85 1014.5
20260508085856 71 200 0.0 0.0 0.00 0.00 0.00 85 1014.7
20260508085326 72 200 0.0 0.0 0.00 0.00 0.00 85 1014.6
20260508084834 72 200 0.0 0.0 0.00 0.00 0.00 85 1014.6
20260508084327 72 200 0.0 0.0 0.00 0.00 0.00 85 1014.5
20260508083849 72 200 0.0 0.0 0.00 0.00 0.00 85 1014.5
20260508083333 72 200 0.0 0.0 0.00 0.00 0.00 85 1014.5
20260508082845 72 200 0.0 0.0 0.00 0.00 0.00 85 1014.5
20260508082355 72 200 0.0 0.0 0.00 0.00 0.00 85 1014.5
20260508081844 72 200 0.0 0.0 0.00 0.00 0.00 85 1014.3
20260508081355 73 200 0.0 0.0 0.00 0.00 0.00 85 1014.5
20260508080846 73 200 0.0 0.0 0.00 0.00 0.00 85 1014.5
20260508080355 73 200 0.0 0.0 0.00 0.00 0.00 85 1014.6
20260508075848 73 200 0.0 0.0 0.00 0.00 0.00 85 1014.5
20260508075328 73 200 0.0 0.0 0.00 0.00 0.00 85 1014.5
20260508074840 73 200 0.0 0.0 0.00 0.00 0.00 85 1014.5
20260508074332 73 200 0.0 0.0 0.00 0.00 0.00 85 1014.5
20260508073823 73 200 0.0 0.0 0.00 0.00 0.00 85 1014.5
20260508073333 73 200 0.0 0.0 0.00 0.00 0.00 86 1014.5
20260508072908 73 200 0.0 0.0 0.00 0.00 0.00 86 1014.5
20260508072343 73 200 0.0 0.0 0.00 0.00 0.00 86 1014.5
20260508071827 74 200 0.0 0.0 0.00 0.00 0.00 86 1014.4
20260508071334 74 200 0.0 0.0 0.00 0.00 0.00 87 1014.5
20260508070826 74 200 0.0 0.0 0.00 0.00 0.00 88 1014.5
20260508070346 74 200 0.0 0.0 0.00 0.00 0.00 88 1014.6
20260508065840 74 200 0.0 0.0 0.00 0.00 0.00 88 1014.7
20260508065334 74 200 0.0 0.0 0.00 0.00 0.00 88 1014.6
20260508064826 74 200 0.0 0.0 0.00 0.00 0.00 88 1014.5
20260508064335 74 200 0.0 0.0 0.00 0.00 0.00 87 1014.6
20260508063826 75 200 0.0 0.0 0.00 0.00 0.00 87 1014.7
20260508063324 75 200 0.0 0.0 0.00 0.00 0.00 87 1014.8
20260508062824 75 200 0.0 0.0 0.00 0.00 0.00 87 1014.8
20260508062335 75 154 0.0 0.0 0.00 0.00 0.00 87 1014.9
20260508061834 75 154 0.0 0.0 0.00 0.00 0.00 87 1015.0
20260508061329 75 154 0.0 0.0 0.00 0.00 0.00 87 1015.0
20260508060823 75 154 0.0 0.0 0.00 0.00 0.00 87 1015.1
20260508060338 75 154 0.0 0.0 0.00 0.00 0.00 87 1015.1
20260508055831 75 154 0.0 0.0 0.00 0.00 0.00 87 1015.0
20260508055342 75 154 0.0 0.0 0.00 0.00 0.00 86 1015.1
20260508054829 75 154 0.0 0.0 0.00 0.00 0.00 86 1015.0
20260508054321 75 154 0.0 0.0 0.00 0.00 0.00 86 1015.1
20260508053906 75 154 0.0 0.0 0.00 0.00 0.00 86 1015.1
20260508053336 75 154 0.0 0.0 0.00 0.00 0.00 85 1015.2
20260508052821 76 155 0.0 0.0 0.00 0.00 0.00 85 1015.2
20260508052330 76 155 0.0 0.0 0.00 0.00 0.00 85 1015.3
20260508051820 76 155 0.0 0.0 0.00 0.00 0.00 84 1015.3
20260508051341 76 155 0.0 0.0 0.00 0.00 0.00 84 1015.2
20260508050854 76 155 0.0 0.0 0.00 0.00 0.00 84 1015.4
20260508050340 77 155 0.0 0.0 0.00 0.00 0.00 84 1015.4
20260508045831 77 155 0.0 0.0 0.00 0.00 0.00 83 1015.4
20260508045323 77 155 0.0 0.0 0.00 0.00 0.00 82 1015.3
20260508044834 78 155 0.0 0.0 0.00 0.00 0.00 82 1015.2
20260508044324 78 155 0.0 0.0 0.00 0.00 0.00 81 1015.2
20260508043832 78 155 0.0 0.0 0.00 0.00 0.00 81 1015.2
20260508043343 78 155 0.0 1.0 0.00 0.00 0.00 81 1015.3
20260508042909 79 155 0.0 1.0 0.00 0.00 0.00 81 1015.3
20260508042332 79 141 0.0 1.0 0.00 0.00 0.00 81 1015.4
20260508041837 79 141 0.0 1.0 0.00 0.00 0.00 81 1015.3
20260508041346 79 141 0.0 2.0 0.00 0.00 0.00 80 1015.3
20260508040913 79 140 0.0 2.0 0.00 0.00 0.00 80 1015.3
20260508040320 79 133 0.0 2.0 0.00 0.00 0.00 80 1015.3
20260508035836 79 143 1.0 2.0 0.00 0.00 0.00 80 1015.3
20260508035341 80 151 0.0 2.0 0.00 0.00 0.00 80 1015.4
20260508034831 80 154 0.0 1.0 0.00 0.00 0.00 80 1015.5
20260508034407 80 155 0.0 2.0 0.00 0.00 0.00 80 1015.5
20260508033820 80 158 1.0 3.0 0.00 0.00 0.00 80 1015.6
20260508033344 80 171 0.0 3.0 0.00 0.00 0.00 80 1015.5
20260508032857 80 149 1.0 4.0 0.00 0.00 0.00 79 1015.5
20260508032325 80 136 1.0 4.0 0.00 0.00 0.00 79 1015.4
20260508031848 80 149 1.0 3.0 0.00 0.00 0.00 79 1015.3
20260508031337 80 141 1.0 3.0 0.00 0.00 0.00 79 1015.4
20260508030829 80 148 0.0 3.0 0.00 0.00 0.00 78 1015.4
20260508030342 80 131 1.0 3.0 0.00 0.00 0.00 78 1015.3
20260508025823 80 134 1.0 3.0 0.00 0.00 0.00 78 1015.3
20260508025349 80 136 1.0 3.0 0.00 0.00 0.00 78 1015.2
20260508024820 81 136 1.0 4.0 0.00 0.00 0.00 78 1015.3
20260508024342 81 136 2.0 5.0 0.00 0.00 0.00 78 1015.3
20260508023836 81 143 1.0 5.0 0.00 0.00 0.00 78 1015.3
20260508023335 81 138 2.0 5.0 0.00 0.00 0.00 78 1015.4
20260508022827 81 153 2.0 5.0 0.00 0.00 0.00 77 1015.3
20260508022347 81 130 2.0 5.0 0.00 0.00 0.00 77 1015.2
20260508021831 81 134 2.0 4.0 0.00 0.00 0.00 77 1015.3
20260508021322 81 146 2.0 6.0 0.00 0.00 0.00 77 1015.3
20260508020834 81 115 1.0 6.0 0.00 0.00 0.00 77 1015.3
20260508020328 81 139 2.0 5.0 0.00 0.00 0.00 77 1015.2
20260508015821 81 142 1.0 5.0 0.00 0.00 0.00 77 1015.2
20260508015324 81 150 2.0 5.0 0.00 0.00 0.00 76 1015.2
20260508014846 81 114 2.0 5.0 0.00 0.00 0.00 76 1015.2
20260508014321 81 145 1.0 4.0 0.00 0.00 0.00 76 1015.1
20260508013828 81 129 2.0 4.0 0.00 0.00 0.00 76 1015.2
20260508013351 81 124 2.0 4.0 0.00 0.00 0.00 75 1015.2
20260508012820 82 131 2.0 4.0 0.00 0.00 0.00 75 1015.2
20260508012342 82 144 1.0 4.0 0.00 0.00 0.00 74 1015.3
20260508011837 82 136 2.0 5.0 0.00 0.00 0.00 74 1015.3
20260508011348 82 159 2.0 5.0 0.00 0.00 0.00 74 1015.2
20260508010833 82 124 3.0 5.0 0.00 0.00 0.00 74 1015.2
20260508010347 82 123 3.0 5.0 0.00 0.00 0.00 74 1015.2
20260508005831 82 117 1.0 4.0 0.00 0.00 0.00 73 1015.2
20260508005322 82 139 1.0 4.0 0.00 0.00 0.00 73 1015.2
20260508004832 82 124 1.0 5.0 0.00 0.00 0.00 72 1015.2
20260508004344 82 152 2.0 5.0 0.00 0.00 0.00 72 1015.2
20260508003857 83 148 2.0 5.0 0.00 0.00 0.00 72 1015.2
20260508003329 83 139 2.0 5.0 0.00 0.00 0.00 71 1015.3
20260508002842 83 131 3.0 5.0 0.00 0.00 0.00 72 1015.2
20260508002324 83 155 1.0 6.0 0.00 0.00 0.00 72 1015.1
20260508001829 83 124 3.0 5.0 0.00 0.00 0.00 71 1015.0
20260508001320 83 123 3.0 5.0 0.00 0.00 0.00 71 1015.0
20260508000850 83 139 1.0 4.0 0.00 0.00 0.00 71 1015.0
20260508000322 83 134 2.0 8.0 0.00 0.00 0.00 70 1015.0
20260507235831 83 150 3.0 8.0 0.00 0.00 0.00 70 1014.8
20260507235324 84 127 5.0 8.0 0.00 0.00 0.00 70 1014.8
20260507234839 84 133 5.0 7.0 0.00 0.00 0.00 69 1014.7
20260507234345 84 129 3.0 7.0 0.00 0.00 0.00 70 1014.7
20260507233839 84 136 2.0 7.0 0.00 0.00 0.00 68 1014.6
20260507233328 84 119 2.0 6.0 0.00 0.00 0.00 69 1014.5
20260507232822 84 98 3.0 8.0 0.00 0.00 0.00 69 1014.3
20260507232345 84 126 5.0 9.0 0.00 0.00 0.00 69 1014.4
20260507231828 84 146 5.0 10.0 0.00 0.00 0.00 69 1014.2
20260507231343 85 138 7.0 10.0 0.00 0.00 0.00 68 1014.2
20260507230832 85 127 3.0 9.0 0.00 0.00 0.00 70 1014.2
20260507230335 85 135 6.0 9.0 0.00 0.00 0.00 69 1014.2
20260507225826 86 124 7.0 9.0 0.00 0.00 0.00 69 1014.2
20260507225347 86 140 4.0 8.0 0.00 0.00 0.00 68 1014.2
20260507224837 86 161 4.0 11.0 0.00 0.00 0.00 69 1014.2
20260507224320 86 105 5.0 9.0 0.00 0.00 0.00 68 1014.1
20260507223829 87 122 5.0 10.0 0.00 0.00 0.00 68 1014.1
20260507223321 87 163 6.0 10.0 0.00 0.00 0.00 67 1014.1
20260507222843 87 123 6.0 9.0 0.00 0.00 0.00 67 1014.0
20260507222336 87 96 4.0 9.0 0.00 0.00 0.00 66 1014.0
20260507221902 87 116 6.0 10.0 0.00 0.00 0.00 66 1014.0
20260507221322 87 146 5.0 10.0 0.00 0.00 0.00 66 1014.0
20260507220824 87 133 5.0 11.0 0.00 0.00 0.00 67 1014.0
20260507220347 87 138 5.0 11.0 0.00 0.00 0.00 66 1014.0
20260507215841 87 109 6.0 9.0 0.00 0.00 0.00 66 1014.1
20260507215335 88 120 4.0 9.0 0.00 0.00 0.00 65 1014.1
20260507214827 88 58 4.0 8.0 0.00 0.00 0.00 66 1014.1
20260507214342 88 160 3.0 10.0 0.00 0.00 0.00 66 1014.1
20260507213834 88 138 5.0 10.0 0.00 0.00 0.00 66 1013.9
20260507213328 88 134 4.0 10.0 0.00 0.00 0.00 66 1013.9
20260507212820 88 137 7.0 11.0 0.00 0.00 0.00 66 1013.9
20260507212330 88 133 5.0 11.0 0.00 0.00 0.00 67 1014.1
20260507211821 88 127 5.0 9.0 0.00 0.00 0.00 67 1014.0
20260507211335 88 131 5.0 10.0 0.00 0.00 0.00 67 1014.0
20260507210828 88 123 6.0 10.0 0.00 0.00 0.00 68 1014.0
20260507210342 88 121 7.0 10.0 0.00 0.00 0.00 68 1014.0
20260507205853 88 117 6.0 10.0 0.00 0.00 0.00 68 1013.9
20260507205322 89 150 7.0 12.0 0.00 0.00 0.00 68 1014.0
20260507204845 89 120 6.0 12.0 0.00 0.00 0.00 69 1014.0
20260507204342 89 136 5.0 8.0 0.00 0.00 0.00 67 1013.9
20260507203825 89 139 4.0 9.0 0.00 0.00 0.00 66 1014.0
20260507203334 90 141 5.0 10.0 0.00 0.00 0.00 67 1013.9
20260507202825 90 121 6.0 9.0 0.00 0.00 0.00 67 1014.0
20260507202324 91 148 5.0 8.0 0.00 0.00 0.00 67 1014.1
20260507201835 91 134 3.0 6.0 0.00 0.00 0.00 66 1014.1
20260507201347 91 125 2.0 6.0 0.00 0.00 0.00 65 1014.1
20260507200830 91 125 3.0 6.0 0.00 0.00 0.00 66 1014.2
20260507200322 91 45 3.0 6.0 0.00 0.00 0.00 63 1014.3
20260507195843 92 4 2.0 4.0 0.00 0.00 0.00 62 1014.4
20260507195337 93 122 2.0 4.0 0.00 0.00 0.00 55 1014.5
20260507194904 94 108 0.0 0.0 0.00 0.00 0.00 54 1014.6
20260507194352 93 120 0.0 3.0 0.00 0.00 0.00 56 1014.6
20260507193824 93 142 0.0 3.0 0.00 0.00 0.00 54 1014.7
20260507193338 93 109 0.0 4.0 0.00 0.00 0.00 56 1014.9
20260507192904 93 55 0.0 4.0 0.00 0.00 0.00 56 1014.8
20260507192337 94 98 0.0 2.0 0.00 0.00 0.00 55 1014.9
20260507191821 93 272 0.0 6.0 0.00 0.00 0.00 56 1015.1
20260507191328 93 23 0.0 6.0 0.00 0.00 0.00 56 1015.1
20260507190820 94 181 3.0 5.0 0.00 0.00 0.00 50 1015.3
20260507190320 94 323 0.0 5.0 0.00 0.00 0.00 53 1015.3
20260507185830 94 139 2.0 5.0 0.00 0.00 0.00 52 1015.4
20260507185324 93 319 1.0 5.0 0.00 0.00 0.00 49 1015.5
20260507184834 94 139 1.0 5.0 0.00 0.00 0.00 50 1015.6
20260507184327 94 295 1.0 3.0 0.00 0.00 0.00 54 1015.6
20260507183819 93 118 0.0 4.0 0.00 0.00 0.00 59 1015.8
20260507183319 93 138 2.0 5.0 0.00 0.00 0.00 56 1015.8
20260507182833 93 179 1.0 3.0 0.00 0.00 0.00 57 1015.8
20260507182327 92 31 1.0 3.0 0.00 0.00 0.00 58 1015.8
20260507181828 92 133 0.0 4.0 0.00 0.00 0.00 58 1015.8
20260507181343 93 127 1.0 5.0 0.00 0.00 0.00 57 1016.0
20260507180844 93 150 2.0 4.0 0.00 0.00 0.00 58 1016.1
20260507180334 92 318 0.0 4.0 0.00 0.00 0.00 62 1016.3
20260507175819 92 253 1.0 4.0 0.00 0.00 0.00 61 1016.3
20260507175328 91 325 0.0 2.0 0.00 0.00 0.00 62 1016.3
20260507174842 91 319 0.0 5.0 0.00 0.00 0.00 61 1016.4
20260507174334 91 133 2.0 5.0 0.00 0.00 0.00 58 1016.3
20260507173840 92 138 0.0 7.0 0.00 0.00 0.00 61 1016.4
20260507173321 92 162 2.0 7.0 0.00 0.00 0.00 57 1016.5
20260507172829 92 133 0.0 4.0 0.00 0.00 0.00 65 1016.5
20260507172342 91 117 0.0 4.0 0.00 0.00 0.00 60 1016.5
20260507171827 90 273 0.0 5.0 0.00 0.00 0.00 63 1016.6
20260507171321 90 126 3.0 5.0 0.00 0.00 0.00 61 1016.6
20260507170830 91 46 0.0 3.0 0.00 0.00 0.00 60 1016.6
20260507170324 91 298 1.0 4.0 0.00 0.00 0.00 60 1016.8
20260507165825 91 124 1.0 4.0 0.00 0.00 0.00 59 1016.7
20260507165328 91 121 1.0 3.0 0.00 0.00 0.00 61 1016.8
20260507164841 91 294 0.0 5.0 0.00 0.00 0.00 59 1016.9
20260507164354 91 156 3.0 5.0 0.00 0.00 0.00 58 1016.9
20260507163842 91 66 0.0 4.0 0.00 0.00 0.00 60 1017.0
20260507163341 91 153 1.0 5.0 0.00 0.00 0.00 59 1017.1
20260507162839 91 243 2.0 5.0 0.00 0.00 0.00 59 1017.1
20260507162334 90 155 0.0 5.0 0.00 0.00 0.00 63 1017.1
20260507161835 90 119 2.0 5.0 0.00 0.00 0.00 60 1017.2
20260507161328 90 301 1.0 3.0 0.00 0.00 0.00 61 1017.2
20260507160820 90 148 1.0 3.0 0.00 0.00 0.00 65 1017.2
20260507160332 90 212 1.0 3.0 0.00 0.00 0.00 65 1017.3
20260507155843 91 253 0.0 3.0 0.00 0.00 0.00 62 1017.3
20260507155331 90 288 0.0 2.0 0.00 0.00 0.00 66 1017.4
20260507154844 90 291 0.0 3.0 0.00 0.00 0.00 65 1017.3
20260507154322 90 300 0.0 2.0 0.00 0.00 0.00 64 1017.5
20260507153841 90 292 1.0 2.0 0.00 0.00 0.00 67 1017.5
20260507153335 90 113 0.0 3.0 0.00 0.00 0.00 68 1017.5
20260507152834 89 174 0.0 3.0 0.00 0.00 0.00 69 1017.5
20260507152408 89 52 0.0 3.0 0.00 0.00 0.00 70 1017.6
20260507151848 89 309 2.0 4.0 0.00 0.00 0.00 69 1017.5
20260507151322 89 316 1.0 4.0 0.00 0.00 0.00 69 1017.5
20260507150859 89 129 1.0 2.0 0.00 0.00 0.00 68 1017.6
20260507150336 88 81 0.0 3.0 0.00 0.00 0.00 70 1017.6
20260507145848 88 129 1.0 3.0 0.00 0.00 0.00 69 1017.6
20260507145341 88 285 1.0 3.0 0.00 0.00 0.00 69 1017.7
20260507144833 88 22 0.0 4.0 0.00 0.00 0.00 72 1017.6
20260507144343 88 127 1.0 4.0 0.00 0.00 0.00 71 1017.6
20260507143851 88 101 0.0 3.0 0.00 0.00 0.00 73 1017.5
20260507143349 87 359 1.0 4.0 0.00 0.00 0.00 72 1017.5
20260507142839 87 155 1.0 3.0 0.00 0.00 0.00 74 1017.6
20260507142332 86 292 1.0 2.0 0.00 0.00 0.00 73 1017.5
20260507141832 86 120 0.0 2.0 0.00 0.00 0.00 74 1017.5
20260507141339 86 313 0.0 4.0 0.00 0.00 0.00 74 1017.6
20260507140849 86 143 1.0 4.0 0.00 0.00 0.00 73 1017.6
20260507140332 86 197 1.0 4.0 0.00 0.00 0.00 74 1017.6
20260507135846 86 140 2.0 4.0 0.00 0.00 0.00 74 1017.6
20260507135336 86 157 1.0 4.0 0.00 0.00 0.00 75 1017.6
20260507134828 86 293 1.0 3.0 0.00 0.00 0.00 75 1017.6
20260507134325 86 311 0.0 3.0 0.00 0.00 0.00 76 1017.7
20260507133846 85 150 1.0 3.0 0.00 0.00 0.00 76 1017.7
20260507133338 85 295 0.0 3.0 0.00 0.00 0.00 77 1017.7
20260507132832 85 297 0.0 3.0 0.00 0.00 0.00 77 1017.7
20260507132343 85 329 0.0 3.0 0.00 0.00 0.00 77 1017.9
20260507131824 85 179 0.0 2.0 0.00 0.00 0.00 77 1017.8
20260507131344 84 266 0.0 0.0 0.00 0.00 0.00 77 1017.7
20260507130854 83 124 0.0 0.0 0.00 0.00 0.00 78 1017.7
20260507130321 83 56 0.0 0.0 0.00 0.00 0.00 78 1017.7
20260507125849 82 132 0.0 0.0 0.00 0.00 0.00 79 1017.7
20260507125346 82 132 0.0 0.0 0.00 0.00 0.00 79 1017.7
20260507124837 81 324 0.0 0.0 0.00 0.00 0.00 79 1017.8
20260507124341 81 323 0.0 0.0 0.00 0.00 0.00 80 1017.7
20260507123849 81 323 0.0 0.0 0.00 0.00 0.00 80 1017.8
20260507123346 80 323 0.0 0.0 0.00 0.00 0.00 81 1017.7
20260507122822 79 323 0.0 0.0 0.00 0.00 0.00 82 1017.8
20260507122322 79 351 0.0 0.0 0.00 0.00 0.00 83 1017.8
20260507121838 78 351 0.0 0.0 0.00 0.00 0.00 83 1017.7
20260507121330 78 351 0.0 0.0 0.00 0.00 0.00 84 1017.8
20260507120839 77 351 0.0 0.0 0.00 0.00 0.00 86 1017.9
20260507120330 76 351 0.0 0.0 0.00 0.00 0.00 86 1017.8
20260507115823 75 351 0.0 0.0 0.00 0.00 0.00 87 1017.7
20260507115331 75 351 0.0 0.0 0.00 0.00 0.00 88 1017.7
20260507114824 75 351 0.0 0.0 0.00 0.00 0.00 89 1017.6
20260507114347 74 351 0.0 0.0 0.00 0.00 0.00 89 1017.5
20260507113840 74 81 0.0 0.0 0.00 0.00 0.00 90 1017.5
20260507113351 74 99 0.0 0.0 0.00 0.00 0.00 91 1017.3
20260507112823 73 99 0.0 0.0 0.00 0.00 0.00 91 1017.2
20260507112335 72 99 0.0 0.0 0.00 0.00 0.00 92 1017.2
20260507111845 71 99 0.0 0.0 0.00 0.00 0.00 91 1017.1
20260507111336 71 99 0.0 0.0 0.00 0.00 0.00 91 1017.0
20260507110830 70 99 0.0 0.0 0.00 0.00 0.00 91 1016.7
20260507110324 70 99 0.0 0.0 0.00 0.00 0.00 91 1016.7
20260507105835 70 99 0.0 0.0 0.00 0.00 0.00 91 1016.4
20260507105408 69 99 0.0 0.0 0.00 0.00 0.00 91 1016.4
20260507104832 70 99 0.0 0.0 0.00 0.00 0.00 91 1016.3
20260507104346 70 99 0.0 0.0 0.00 0.00 0.00 91 1016.3
20260507103856 70 99 0.0 0.0 0.00 0.00 0.00 91 1016.2
20260507103330 70 99 0.0 0.0 0.00 0.00 0.00 91 1016.1
20260507102824 70 99 0.0 0.0 0.00 0.00 0.00 91 1016.2
20260507102346 70 99 0.0 0.0 0.00 0.00 0.00 90 1016.0
20260507101831 70 99 0.0 0.0 0.00 0.00 0.00 90 1016.0
20260507101325 70 99 0.0 0.0 0.00 0.00 0.00 90 1016.0
20260507100835 70 99 0.0 0.0 0.00 0.00 0.00 90 1015.8
20260507100329 70 99 0.0 0.0 0.00 0.00 0.00 90 1015.8
20260507095849 70 99 0.0 0.0 0.00 0.00 0.00 90 1015.6
20260507095331 70 99 0.0 0.0 0.00 0.00 0.00 90 1015.7